Satellite-Ground Cal/Val Site Overpasses Predictions

Prediction of Satellite NPP Overpassing Cal/Val Site: Antarctic Dome C

Ground Cal/Val Site Location: Latitude: -75.10, Longitude: 123.35; Satellite-Ground Site NADIR distance within 100 km.

Table of predicted overpasses for the next 14.0 days since TLE Epoch: 1/17/2015
Interval Starting Time Ending Time Minimum Distance Time Minimum Distance (km)
1 01/18/2015 15:14:39 01/18/2015 15:14:50 01/18/2015 15:14:44 91.55
2 01/19/2015 14:55:37 01/19/2015 14:56:06 01/19/2015 14:55:52 19.97
3 01/21/2015 07:38:24 01/21/2015 07:38:53 01/21/2015 07:38:38 5.54
4 01/24/2015 15:01:43 01/24/2015 15:02:12 01/24/2015 15:01:58 16.23
5 01/25/2015 14:43:01 01/25/2015 14:43:13 01/25/2015 14:43:07 90.85
6 01/26/2015 07:44:30 01/26/2015 07:44:57 01/26/2015 07:44:44 40.19
7 01/27/2015 07:25:42 01/27/2015 07:26:02 01/27/2015 07:25:52 70.07
8 01/29/2015 15:07:51 01/29/2015 15:08:16 01/29/2015 15:08:04 52.77
9 01/30/2015 14:49:00 01/30/2015 14:49:24 01/30/2015 14:49:12 56.47
